Location: Observatory
(52.1446°N, 0.4624°W)
Time: 10:25:16
(UTC+00:00)

ISS - Pass Details

Date: 30 January 2019
Orbit: 403 x 411 km, 51.6° (Epoch: 23 February)

Event Time Altitude Azimuth Distance (km) Brightness Sun altitude
Rises 19:33:24 0° 275° (W) 2,339 1.4 -25.7°
Reaches altitude 10° 19:35:29 10° 274° (W) 1,479 0.0 -26.1°
Enters shadow 19:37:05 26° 271° (W) 850 -1.6 -26.3°
